When you browse on this site, cookies collect data to enhance your experience and personalize the content and advertising you see.
Visit our Privacy Policy to learn more. By continuing to use the site, you agree to this use of cookies and data.
  • In Hungary
  • List of Countries
  • For 7 days
  • Water Temperature
  • Satellite Maps
  • Weather Map
  • News
  • Weather Widgets
  • user-avatar
    Login

    Hourly Weather Panotla

    Today, 22 February, Friday

    Time Temperature Precipitation Wind Pressure Humidity
    00:00 +12°C° 0 mm 0 mps 576 mmHg 42%
    01:00 +12°C° 0 mm 0 mps 576 mmHg 43%
    02:00 +12°C° 0 mm 0 mps 575 mmHg 44%
    03:00 +12°C° 0 mm 1 mps 575 mmHg 45%
    04:00 +12°C° 0 mm 1 mps 575 mmHg 45%
    05:00 +12°C° 0 mm 1 mps 575 mmHg 46%
    06:00 +14°C° 0 mm 1 mps 576 mmHg 40%
    07:00 +15°C° 0 mm 0 mps 578 mmHg 35%
    08:00 +17°C° 0 mm 0 mps 579 mmHg 30%
    09:00 +21°C° 0 mm 1 mps 580 mmHg 25%
    10:00 +23°C° 0 mm 1 mps 581 mmHg 21%
    11:00 +25°C° 0 mm 1 mps 582 mmHg 17%
    12:00 +25°C° 0 mm 2 mps 581 mmHg 16%
    13:00 +26°C° 0 mm 2 mps 581 mmHg 16%
    14:00 +26°C° 0 mm 3 mps 580 mmHg 15%
    15:00 +25°C° 0 mm 3 mps 580 mmHg 18%
    16:00 +24°C° 0 mm 3 mps 580 mmHg 21%
    17:00 +22°C° 0 mm 4 mps 579 mmHg 24%
    18:00 +20°C° 0 mm 3 mps 579 mmHg 29%
    19:00 +19°C° 0 mm 2 mps 579 mmHg 34%
    20:00 +18°C° 0 mm 1 mps 578 mmHg 39%
    21:00 +18°C° 0 mm 1 mps 578 mmHg 40%
    22:00 +16°C° 0 mm 1 mps 578 mmHg 42%
    23:00 +15°C° 0 mm 1 mps 578 mmHg 44%

    Tomorrow, 23 February, Saturday

    Time Temperature Precipitation Wind Pressure Humidity
    00:00 +15°C° 0 mm 1 mps 578 mmHg 47%
    01:00 +14°C° 0 mm 1 mps 577 mmHg 49%
    02:00 +13°C° 0 mm 0 mps 577 mmHg 52%
    03:00 +12°C° 0 mm 0 mps 577 mmHg 54%
    04:00 +13°C° 0 mm 1 mps 577 mmHg 56%
    05:00 +13°C° 0 mm 1 mps 577 mmHg 58%
    06:00 +14°C° 0 mm 1 mps 578 mmHg 54%
    07:00 +16°C° 0 mm 1 mps 579 mmHg 51%
    08:00 +18°C° 0 mm 1 mps 580 mmHg 48%
    09:00 +20°C° 0 mm 1 mps 580 mmHg 42%
    10:00 +22°C° 0 mm 1 mps 581 mmHg 35%
    11:00 +24°C° 0 mm 1 mps 582 mmHg 29%
    12:00 +24°C° 0 mm 2 mps 581 mmHg 28%
    13:00 +25°C° 0 mm 2 mps 581 mmHg 27%
    14:00 +26°C° 0 mm 3 mps 580 mmHg 25%
    15:00 +24°C° 0 mm 3 mps 580 mmHg 28%
    16:00 +22°C° 0 mm 3 mps 580 mmHg 32%
    17:00 +21°C° 0 mm 3 mps 580 mmHg 35%
    18:00 +20°C° 0 mm 3 mps 580 mmHg 39%
    19:00 +19°C° 0 mm 3 mps 580 mmHg 44%
    20:00 +17°C° 0 mm 3 mps 580 mmHg 49%
    21:00 +16°C° 0 mm 2 mps 580 mmHg 57%
    22:00 +15°C° 0 mm 2 mps 580 mmHg 64%
    23:00 +14°C° 0 mm 2 mps 580 mmHg 72%

    Day after tomorrow, 24 February, Sunday

    Time Temperature Precipitation Wind Pressure Humidity
    00:00 +14°C° 0 mm 2 mps 579 mmHg 75%
    01:00 +13°C° 0 mm 2 mps 578 mmHg 78%
    02:00 +13°C° 0 mm 1 mps 578 mmHg 81%
    03:00 +13°C° 0 mm 1 mps 578 mmHg 82%
    04:00 +12°C° 0 mm 1 mps 578 mmHg 82%
    05:00 +12°C° 0 mm 1 mps 578 mmHg 83%
    06:00 +13°C° 0 mm 2 mps 579 mmHg 76%
    07:00 +14°C° 0 mm 2 mps 580 mmHg 68%
    08:00 +16°C° 0 mm 2 mps 581 mmHg 61%
    09:00 +17°C° 0 mm 2 mps 582 mmHg 54%
    10:00 +19°C° 0 mm 2 mps 582 mmHg 48%
    11:00 +21°C° 0 mm 2 mps 583 mmHg 41%
    12:00 +21°C° 0.1 mm 2 mps 582 mmHg 42%
    13:00 +21°C° 0.1 mm 2 mps 581 mmHg 42%
    14:00 +21°C° 0.1 mm 2 mps 580 mmHg 43%
    15:00 +20°C° 0.4 mm 2 mps 580 mmHg 46%
    16:00 +19°C° 0.4 mm 2 mps 580 mmHg 50%
    17:00 +19°C° 0.4 mm 2 mps 580 mmHg 53%
    18:00 +18°C° 0.3 mm 2 mps 580 mmHg 59%
    19:00 +17°C° 0.3 mm 2 mps 580 mmHg 64%
    20:00 +16°C° 0.3 mm 2 mps 580 mmHg 70%
    21:00 +15°C° 0.2 mm 2 mps 580 mmHg 73%
    22:00 +15°C° 0.2 mm 2 mps 580 mmHg 75%
    23:00 +14°C° 0.2 mm 2 mps 580 mmHg 78%

    25 February, Monday

    Time Temperature Precipitation Wind Pressure Humidity
    00:00 +13°C° 0 mm 2 mps 579 mmHg 80%
    01:00 +13°C° 0 mm 1 mps 579 mmHg 82%
    02:00 +13°C° 0 mm 1 mps 578 mmHg 84%
    03:00 +12°C° 0 mm 1 mps 578 mmHg 84%
    04:00 +12°C° 0 mm 1 mps 578 mmHg 85%
    05:00 +12°C° 0 mm 1 mps 578 mmHg 85%
    06:00 +13°C° 0 mm 2 mps 579 mmHg 79%
    07:00 +14°C° 0 mm 2 mps 580 mmHg 72%
    08:00 +16°C° 0 mm 2 mps 581 mmHg 65%
    09:00 +18°C° 0 mm 2 mps 581 mmHg 57%
    10:00 +19°C° 0 mm 2 mps 582 mmHg 49%
    11:00 +21°C° 0 mm 2 mps 582 mmHg 41%
    12:00 +23°C° 0.1 mm 2 mps 582 mmHg 39%
    13:00 +22°C° 0.1 mm 3 mps 581 mmHg 37%
    14:00 +24°C° 0.1 mm 3 mps 581 mmHg 36%
    15:00 +22°C° 0.4 mm 3 mps 581 mmHg 38%
    16:00 +21°C° 0.4 mm 3 mps 580 mmHg 40%
    17:00 +20°C° 0.4 mm 3 mps 580 mmHg 42%
    18:00 +19°C° 0.2 mm 3 mps 580 mmHg 48%
    19:00 +18°C° 0.2 mm 2 mps 580 mmHg 54%
    20:00 +16°C° 0.2 mm 1 mps 580 mmHg 60%
    21:00 +16°C° 0 mm 1 mps 580 mmHg 64%
    22:00 +15°C° 0 mm 2 mps 580 mmHg 69%
    23:00 +15°C° 0 mm 2 mps 579 mmHg 74%

    26 February, Tuesday

    Time Temperature Precipitation Wind Pressure Humidity
    00:00 +14°C° 0 mm 2 mps 579 mmHg 76%
    01:00 +14°C° 0 mm 1 mps 578 mmHg 78%
    02:00 +13°C° 0 mm 1 mps 578 mmHg 81%
    03:00 +13°C° 0 mm 1 mps 578 mmHg 81%
    04:00 +13°C° 0 mm 1 mps 578 mmHg 81%
    05:00 +11°C° 0 mm 0 mps 578 mmHg 81%
    06:00 +13°C° 0 mm 0 mps 579 mmHg 73%
    07:00 +14°C° 0 mm 0 mps 580 mmHg 64%
    08:00 +16°C° 0 mm 0 mps 581 mmHg 56%
    09:00 +20°C° 0 mm 1 mps 581 mmHg 48%
    10:00 +20°C° 0 mm 2 mps 581 mmHg 40%
    11:00 +23°C° 0 mm 2 mps 582 mmHg 33%
    12:00 +24°C° 0 mm 3 mps 581 mmHg 31%
    13:00 +24°C° 0 mm 3 mps 581 mmHg 30%
    14:00 +25°C° 0 mm 4 mps 580 mmHg 29%
    15:00 +23°C° 0.3 mm 4 mps 580 mmHg 34%
    16:00 +22°C° 0.3 mm 4 mps 579 mmHg 39%
    17:00 +20°C° 0.3 mm 4 mps 579 mmHg 44%
    18:00 +19°C° 0.6 mm 3 mps 579 mmHg 50%
    19:00 +18°C° 0.6 mm 2 mps 579 mmHg 57%
    20:00 +16°C° 0.6 mm 2 mps 579 mmHg 64%
    21:00 +16°C° 0.5 mm 1 mps 579 mmHg 67%
    22:00 +15°C° 0.5 mm 1 mps 579 mmHg 71%
    23:00 +15°C° 0.5 mm 1 mps 579 mmHg 75%

    27 February, Wednesday

    Time Temperature Precipitation Wind Pressure Humidity
    00:00 +14°C° 0.4 mm 1 mps 578 mmHg 76%
    01:00 +14°C° 0.4 mm 1 mps 578 mmHg 77%
    02:00 +13°C° 0.4 mm 0 mps 577 mmHg 77%
    03:00 +13°C° 0.2 mm 1 mps 577 mmHg 78%
    04:00 +13°C° 0.2 mm 1 mps 577 mmHg 79%
    05:00 +13°C° 0.2 mm 1 mps 577 mmHg 80%
    06:00 +14°C° 0 mm 1 mps 578 mmHg 74%
    07:00 +15°C° 0 mm 1 mps 579 mmHg 67%
    08:00 +18°C° 0 mm 1 mps 580 mmHg 60%
    09:00 +19°C° 0 mm 1 mps 580 mmHg 53%
    10:00 +20°C° 0 mm 2 mps 581 mmHg 45%
    11:00 +23°C° 0 mm 2 mps 581 mmHg 37%
    12:00 +22°C° 0 mm 3 mps 581 mmHg 35%
    13:00 +24°C° 0 mm 3 mps 580 mmHg 33%
    14:00 +24°C° 0 mm 3 mps 580 mmHg 31%
    15:00 +22°C° 0 mm 3 mps 579 mmHg 33%
    16:00 +22°C° 0 mm 3 mps 579 mmHg 36%
    17:00 +21°C° 0 mm 2 mps 579 mmHg 39%
    18:00 +19°C° 0 mm 2 mps 579 mmHg 48%
    19:00 +18°C° 0 mm 2 mps 579 mmHg 57%
    20:00 +16°C° 0 mm 1 mps 578 mmHg 65%
    21:00 +16°C° 0 mm 1 mps 578 mmHg 69%
    22:00 +15°C° 0 mm 1 mps 578 mmHg 73%
    23:00 +14°C° 0 mm 1 mps 578 mmHg 77%
    Show more